Tracking 20621 objects as of 29-Mar-2020
HD Live streaming from Space Station
objects crossing your sky now

SL-8 DEB *

Track SL-8 DEB * now!
10-day predictions


NORAD ID: 18512
Int'l Code: 1977-119E
Perigee: 657.4 km
Apogee: 661.9 km
Inclination: 74.0 °
Period: 97.8 minutes
Semi major axis: 7030 km
RCS: 0.0059 m2 (small)
Launch date: December 16, 1977
Source: Commonwealth of Independent States (former USSR) (CIS)
Launch site: PLESETSK MISSILE AND SPACE COMPLEX (PKMTR)

Note: This is SATELLITE DEBRIS
aabbcc
Your satellite tracking list
Your tracking list is empty




NASA's NSSDC Master Catalog

Two Line Element Set (TLE):
1 18512U 77119E   20088.86977109 +.00000363 +00000-0 +62066-4 0  9993
2 18512 074.0346 002.1007 0003178 093.5189 331.7437 14.72674144872079
Source of the keplerian elements: AFSPC